This demonstration page uses our WeatherBlox Daily Observations layout. Learn more.

Left ArrowRight Arrow

38.83388, -104.82136

Hourly Observations for January 23, 2017

Temp ( °F °C ) Dew Point ( °F °C ) Humidity (%) Winds ( mph kmh ) Pressure ( in mb ) Visibility ( mi km ) Precip ( " mm )
12:58 am 00:58 Mostly Clear 27 -2.6 14 -10.1 57 57 NW 7 11 29.49 999 10 16 0.00 0.00
1:58 am 01:58 Mostly Cloudy 31 -0.7 19 -7.5 60 60 S 5 7 29.42 996 10 16 0.00 0.00
2:58 am 02:58 Mostly Clear 42 5.3 18 -7.7 39 39 SE 16 26 29.36 994 10 16 0.00 0.00
3:58 am 03:58 Clear 39 4.1 19 -7.4 43 43 SSE 13 20 29.35 994 10 16 0.00 0.00
3:59 am 03:59 Clear 39 4 19 -7 45 45 E 14 22 29.59 1002 10 16 0.00 0.00
4:58 am 04:58 Clear 39 3.7 18 -7.7 43 43 SSE 9 15 29.38 995 10 16 0.00 0.00
5:58 am 05:58 Clear 39 3.7 19 -7.3 45 45 SSW 6 9 29.36 994 10 16 0.00 0.00
6:58 am 06:58 Clear 39 4 18 -7.6 43 43 SSW 5 7 29.38 995 10 16 0.00 0.00
7:58 am 07:58 Sunny 39 3.8 17 -8.5 41 41 SE 5 7 29.39 995 10 16 0.00 0.00
8:13 am 08:13 Sunny 39 4 18 -8 42 42 NNW 15 24 29.59 1002 10 16 0.00 0.00
8:27 am 08:27 Sunny 41 5 16 -9 36 36 SE 14 22 29.56 1001 10 16 0.00 0.00
8:58 am 08:58 Sunny 42 5.4 16 -8.7 36 36 SSE 18 30 29.36 994 10 16 0.00 0.00
9:52 am 09:52 Sunny 43 6 16 -9 34 34 SE 15 24 29.56 1001 10 16 0.00 0.00
9:58 am 09:58 Sunny 43 6.1 17 -8.4 35 35 SSE 14 22 29.37 995 10 16 0.00 0.00
12:31 pm 12:31 Mostly Sunny 46 8 12 -11 25 25 S 14 22 29.38 995 10 16 0.00 0.00
12:42 pm 12:42 Partly Cloudy 46 8 14 -10 27 27 ESE 14 22 29.38 995 10 16 0.00 0.00
12:45 pm 12:45 Partly Cloudy 46 8 14 -10 27 27 SSE 15 24 29.38 995 10 16 0.00 0.00
12:58 pm 12:58 Mostly Cloudy 46 7.8 14 -10.2 27 27 SSE 14 22 29.27 991 10 16 0.00 0.00
1:24 pm 13:24 Mostly Cloudy 45 7 16 -9 31 31 S 16 26 29.41 996 10 16 0.00 0.00
1:58 pm 13:58 Mostly Cloudy 44 6.8 16 -9.1 31 31 SSE 15 24 29.21 989 10 16 0.00 0.00
2:58 pm 14:58 Mostly Cloudy 45 7 16 -9 31 31 SSE 9 15 29.17 988 10 16 0.00 0.00
3:58 pm 15:58 Cloudy 44 6.5 17 -8.5 34 34 ESE 3 6 29.16 988 10 16 0.00 0.00
4:58 pm 16:58 Mostly Cloudy 42 5.5 19 -7.2 40 40 E 6 9 29.17 988 10 16 0.00 0.00
5:58 pm 17:58 Partly Cloudy 40 4.5 18 -7.6 41 41 SW 6 9 29.20 989 10 16 0.00 0.00
6:58 pm 18:58 Partly Cloudy 40 4.2 19 -7.2 44 44 W 6 9 29.17 988 10 16 0.00 0.00
7:58 pm 19:58 Cloudy 39 3.9 21 -6.2 48 48 WNW 5 7 29.17 988 10 16 0.00 0.00
8:58 pm 20:58 Cloudy 39 3.7 20 -6.9 46 46 W 3 6 29.14 987 10 16 0.00 0.00
9:39 pm 21:39 Mostly Cloudy with Light Rain 37 3 23 -5 56 56 N 10 17 29.44 997 10 16 0.00 0.00
9:58 pm 21:58 Cloudy with Light Rain/Snow 35 1.9 28 -2.3 74 74 WNW 14 22 29.16 987 3 4 0.00 0.00
10:18 pm 22:18 Cloudy 37 3 23 -5 56 56 NW 9 15 29.41 996 10 16 0.00 0.00
10:58 pm 22:58 Cloudy 37 2.9 23 -5.2 56 56 NW 5 7 29.41 996 10 16 0.00 0.00
11:58 pm 23:58 Mostly Cloudy 37 3 19 -7 48 48 S 9 15 29.35 994 10 16 0.00 0.00

Powered by AerisWeather